UAE817 OMDB-OERK

Flight info

Callsign UAE817
Flight time 1h 24m
Altitude 40000
Route SENPA N571 ALPOB L768 ULADA T136 OTISU N112 GETOT Q212 MEMGO
Aircraft A388/J-SADE2E3FGHIJ3J4J5M1RWXY/LB1D1

Departure

Time 2026-05-03 21:00
Airport Dubai International Airport (OMDB)

Arrival

Time 2026-05-03 22:24
Airport King Khalid International Airport (OERK)
Time Latitude Longitude Altitude Speed Heading
2026-05-03 20:19 25.24495 55.37154 27 ft 0 kts 211°
2026-05-03 20:20 25.24487 55.37149 27 ft 0 kts 211°
2026-05-03 20:48 25.24491 55.37151 54 ft 1 kts 211°
2026-05-03 20:48 25.24496 55.37155 26 ft 1 kts 211°
2026-05-03 20:49 25.24502 55.37159 26 ft 1 kts 211°
2026-05-03 20:49 25.24507 55.37162 26 ft 1 kts 211°
2026-05-03 20:49 25.24514 55.37167 26 ft 2 kts 211°
2026-05-03 20:49 25.24524 55.37173 25 ft 2 kts 211°
2026-05-03 20:50 25.24534 55.37179 25 ft 2 kts 205°
2026-05-03 20:50 25.24545 55.37182 25 ft 2 kts 186°
2026-05-03 20:50 25.24557 55.37180 24 ft 2 kts 169°
2026-05-03 20:50 25.24567 55.37175 26 ft 2 kts 154°
2026-05-03 20:51 25.24578 55.37166 24 ft 2 kts 139°
2026-05-03 20:51 25.24586 55.37155 25 ft 2 kts 124°
2026-05-03 20:51 25.24594 55.37140 26 ft 3 kts 117°
2026-05-03 20:51 25.24600 55.37125 25 ft 0 kts 113°
2026-05-03 20:53 25.24595 55.37138 27 ft 7 kts 115°
2026-05-03 20:53 25.24551 55.37214 27 ft 13 kts 128°
2026-05-03 20:54 25.24514 55.37270 27 ft 14 kts 122°
2026-05-03 20:54 25.24378 55.37516 27 ft 10 kts 122°
2026-05-03 20:54 25.24334 55.37594 27 ft 13 kts 122°
2026-05-03 20:55 25.24315 55.37631 27 ft 0 kts 116°
2026-05-03 20:56 25.24308 55.37647 27 ft 3 kts 112°
2026-05-03 20:56 25.24307 55.37667 27 ft 4 kts 71°
2026-05-03 20:56 25.24334 55.37703 27 ft 10 kts 36°
2026-05-03 20:57 25.24411 55.37760 27 ft 17 kts 34°
2026-05-03 20:57 25.24525 55.37847 27 ft 22 kts 34°
2026-05-03 20:57 25.24616 55.37914 27 ft 15 kts 33°
2026-05-03 20:57 25.24677 55.37959 27 ft 0 kts 33°
2026-05-03 20:58 25.24684 55.37963 27 ft 4 kts 33°
2026-05-03 20:58 25.24733 55.37997 27 ft 11 kts 31°
2026-05-03 20:58 25.24800 55.38016 27 ft 11 kts 337°
2026-05-03 20:59 25.24844 55.37957 27 ft 0 kts 298°
2026-05-03 20:59 25.24877 55.37894 27 ft 42 kts 301°
2026-05-03 20:59 25.25198 55.37319 27 ft 130 kts 301°
2026-05-03 20:59 25.25779 55.36286 126 ft 176 kts 301°
2026-05-03 21:00 25.26451 55.35127 652 ft 184 kts 301°
2026-05-03 21:00 25.26897 55.34322 967 ft 187 kts 299°
2026-05-03 21:00 25.27760 55.32644 1642 ft 189 kts 298°
2026-05-03 21:00 25.28431 55.31333 2097 ft 206 kts 298°
2026-05-03 21:01 25.29191 55.29913 2637 ft 223 kts 297°
2026-05-03 21:01 25.29676 55.28381 3096 ft 201 kts 278°
2026-05-03 21:01 25.29766 55.26915 3463 ft 190 kts 274°
2026-05-03 21:01 25.29845 55.25420 3947 ft 201 kts 275°
2026-05-03 21:02 25.29959 55.23868 4720 ft 202 kts 276°
2026-05-03 21:02 25.30100 55.22274 5291 ft 218 kts 277°
2026-05-03 21:02 25.30253 55.20547 5851 ft 230 kts 276°
2026-05-03 21:02 25.30395 55.18782 6647 ft 231 kts 274°
2026-05-03 21:03 25.30336 55.17003 7418 ft 235 kts 266°
2026-05-03 21:03 25.30183 55.15184 8260 ft 207 kts 269°
2026-05-03 21:03 25.30106 55.13637 9367 ft 214 kts 270°
2026-05-03 21:03 25.29996 55.11928 9726 ft 237 kts 268°
2026-05-03 21:04 25.29831 55.10026 10055 ft 260 kts 267°
2026-05-03 21:04 25.29650 55.07947 10310 ft 284 kts 267°
2026-05-03 21:04 25.29462 55.05690 10491 ft 306 kts 267°
2026-05-03 21:04 25.29268 55.03266 10690 ft 326 kts 267°
2026-05-03 21:05 25.29070 55.00745 11258 ft 332 kts 267°
2026-05-03 21:05 25.28869 54.98179 11866 ft 338 kts 267°
2026-05-03 21:05 25.28665 54.95575 12515 ft 343 kts 267°
2026-05-03 21:05 25.28482 54.92926 13129 ft 348 kts 269°
2026-05-03 21:06 25.28398 54.90237 13747 ft 352 kts 271°
2026-05-03 21:06 25.28347 54.87520 14384 ft 354 kts 271°
2026-05-03 21:06 25.28292 54.84793 15042 ft 356 kts 271°
2026-05-03 21:06 25.28227 54.82049 15693 ft 358 kts 270°
2026-05-03 21:07 25.28152 54.79290 16330 ft 361 kts 270°
2026-05-03 21:07 25.28107 54.76510 16952 ft 362 kts 274°
2026-05-03 21:07 25.28348 54.73741 17568 ft 363 kts 281°
2026-05-03 21:07 25.28912 54.71012 18140 ft 365 kts 287°
2026-05-03 21:08 25.29621 54.68312 18645 ft 367 kts 287°
2026-05-03 21:08 25.30314 54.65597 19170 ft 369 kts 287°
2026-05-03 21:08 25.31004 54.62857 19680 ft 372 kts 287°
2026-05-03 21:08 25.31698 54.60098 20225 ft 373 kts 287°
2026-05-03 21:09 25.32395 54.57326 20719 ft 375 kts 287°
2026-05-03 21:09 25.33094 54.54546 21223 ft 378 kts 287°
2026-05-03 21:09 25.33808 54.51743 21702 ft 380 kts 287°
2026-05-03 21:09 25.34565 54.48932 22177 ft 383 kts 288°
2026-05-03 21:10 25.35341 54.46105 22618 ft 387 kts 288°
2026-05-03 21:10 25.36122 54.43253 23113 ft 388 kts 287°
2026-05-03 21:10 25.36903 54.40384 23539 ft 391 kts 287°
2026-05-03 21:10 25.37684 54.37496 23983 ft 392 kts 287°
2026-05-03 21:11 25.38463 54.34607 24403 ft 393 kts 287°
2026-05-03 21:11 25.39246 54.31700 24826 ft 395 kts 287°
2026-05-03 21:11 25.40031 54.28784 25240 ft 396 kts 287°
2026-05-03 21:11 25.40807 54.25849 25663 ft 398 kts 286°
2026-05-03 21:12 25.41545 54.22892 26069 ft 400 kts 285°
2026-05-03 21:12 25.42276 54.19911 26469 ft 403 kts 285°
2026-05-03 21:12 25.43011 54.16913 26939 ft 404 kts 285°
2026-05-03 21:12 25.43746 54.13930 27434 ft 406 kts 285°
2026-05-03 21:13 25.44482 54.10954 27968 ft 407 kts 285°
2026-05-03 21:13 25.45228 54.07925 28444 ft 409 kts 285°
2026-05-03 21:13 25.45964 54.04873 28957 ft 412 kts 285°
2026-05-03 21:13 25.46700 54.01800 29501 ft 414 kts 285°
2026-05-03 21:14 25.47440 53.98712 29977 ft 417 kts 284°
2026-05-03 21:14 25.48187 53.95597 30391 ft 420 kts 284°
2026-05-03 21:14 25.48938 53.92468 30851 ft 423 kts 284°
2026-05-03 21:14 25.49694 53.89313 31293 ft 425 kts 284°
2026-05-03 21:15 25.50455 53.86140 31761 ft 428 kts 284°
2026-05-03 21:15 25.51219 53.82948 32192 ft 430 kts 283°
2026-05-03 21:15 25.51987 53.79739 32624 ft 433 kts 283°
2026-05-03 21:15 25.52759 53.76506 33058 ft 436 kts 283°
2026-05-03 21:16 25.53536 53.73252 33484 ft 439 kts 283°
2026-05-03 21:16 25.54322 53.69969 33858 ft 443 kts 283°
2026-05-03 21:16 25.55113 53.66664 34235 ft 445 kts 283°
2026-05-03 21:16 25.55906 53.63347 34678 ft 446 kts 283°
2026-05-03 21:17 25.56700 53.60027 35158 ft 446 kts 283°
2026-05-03 21:17 25.57224 53.57828 35480 ft 446 kts 283°
2026-05-03 21:17 25.58283 53.53387 36156 ft 445 kts 283°
2026-05-03 21:17 25.59072 53.50073 36636 ft 445 kts 283°
2026-05-03 21:18 25.59859 53.46762 37137 ft 444 kts 283°
2026-05-03 21:18 25.60644 53.43456 37641 ft 443 kts 283°
2026-05-03 21:18 25.61426 53.40155 38110 ft 443 kts 283°
2026-05-03 21:18 25.62206 53.36859 38558 ft 443 kts 283°
2026-05-03 21:19 25.62984 53.33564 38967 ft 441 kts 283°
2026-05-03 21:19 25.63759 53.30276 39370 ft 440 kts 283°
2026-05-03 21:19 25.64534 53.26988 39723 ft 441 kts 283°
2026-05-03 21:19 25.65302 53.23720 39795 ft 446 kts 283°
2026-05-03 21:20 25.66869 53.17054 39796 ft 443 kts 283°
2026-05-03 21:20 25.68407 53.10494 39797 ft 443 kts 283°
2026-05-03 21:21 25.70034 53.03908 39796 ft 444 kts 287°
2026-05-03 21:21 25.72385 52.97567 39795 ft 447 kts 294°
2026-05-03 21:22 25.75289 52.91449 39807 ft 449 kts 295°
2026-05-03 21:22 25.78180 52.85309 39811 ft 449 kts 295°
2026-05-03 21:23 25.81072 52.79167 39814 ft 449 kts 295°
2026-05-03 21:23 25.83968 52.73017 39807 ft 450 kts 295°
2026-05-03 21:24 25.86862 52.66864 39807 ft 450 kts 295°
2026-05-03 21:24 25.89754 52.60707 39806 ft 450 kts 295°
2026-05-03 21:25 25.92543 52.54501 39808 ft 449 kts 293°
2026-05-03 21:25 25.95261 52.48267 39814 ft 449 kts 293°
2026-05-03 21:26 25.97994 52.42041 39813 ft 448 kts 293°
2026-05-03 21:26 26.00742 52.35832 39809 ft 447 kts 294°
2026-05-03 21:27 26.03509 52.29653 39808 ft 447 kts 294°
2026-05-03 21:27 26.06270 52.23470 39800 ft 446 kts 294°
2026-05-03 21:28 26.09027 52.17280 39795 ft 446 kts 293°
2026-05-03 21:28 26.11775 52.11097 39813 ft 445 kts 293°
2026-05-03 21:29 26.14517 52.04921 39810 ft 445 kts 293°
2026-05-03 21:29 26.17253 51.98749 39788 ft 444 kts 293°
2026-05-03 21:30 26.20008 51.92639 39804 ft 444 kts 293°
2026-05-03 21:30 26.22741 51.86467 39809 ft 444 kts 293°
2026-05-03 21:31 26.25456 51.80281 39821 ft 444 kts 293°
2026-05-03 21:31 26.28198 51.74118 39825 ft 444 kts 293°
2026-05-03 21:32 26.30953 51.67947 39817 ft 444 kts 293°
2026-05-03 21:32 26.33702 51.61780 39818 ft 444 kts 293°
2026-05-03 21:33 26.36449 51.55617 39803 ft 444 kts 293°
2026-05-03 21:33 26.38863 51.49302 39821 ft 441 kts 286°
2026-05-03 21:34 26.40906 51.42846 39817 ft 441 kts 287°
2026-05-03 21:34 26.42971 51.36404 39817 ft 441 kts 287°
2026-05-03 21:35 26.45034 51.29960 39814 ft 441 kts 287°
2026-05-03 21:35 26.47091 51.23520 39814 ft 441 kts 287°
2026-05-03 21:36 26.49150 51.17064 39814 ft 441 kts 287°
2026-05-03 21:36 26.51205 51.10608 39828 ft 441 kts 287°
2026-05-03 21:37 26.53251 51.04166 39829 ft 440 kts 287°
2026-05-03 21:37 26.55294 50.97724 39819 ft 439 kts 287°
2026-05-03 21:38 26.57329 50.91295 39822 ft 439 kts 287°
2026-05-03 21:38 26.59335 50.84860 39816 ft 438 kts 286°
2026-05-03 21:39 26.61324 50.78421 39827 ft 438 kts 286°
2026-05-03 21:39 26.63313 50.71984 39828 ft 438 kts 286°
2026-05-03 21:40 26.65270 50.65592 39823 ft 437 kts 285°
2026-05-03 21:40 26.67171 50.59146 39819 ft 437 kts 285°
2026-05-03 21:41 26.69072 50.52693 39819 ft 437 kts 285°
2026-05-03 21:41 26.70665 50.47291 39820 ft 437 kts 284°
2026-05-03 21:42 26.72353 50.40779 39832 ft 436 kts 283°
2026-05-03 21:42 26.73751 50.34209 39832 ft 433 kts 275°
2026-05-03 21:43 26.73729 50.27511 39831 ft 431 kts 262°
2026-05-03 21:43 26.72206 50.21092 39829 ft 432 kts 249°
2026-05-03 21:44 26.69354 50.15170 39829 ft 434 kts 242°
2026-05-03 21:44 26.66310 50.09349 39830 ft 434 kts 242°
2026-05-03 21:45 26.63266 50.03529 39828 ft 434 kts 242°
2026-05-03 21:45 26.60211 49.97717 39828 ft 434 kts 242°
2026-05-03 21:46 26.57157 49.91914 39830 ft 433 kts 242°
2026-05-03 21:46 26.54099 49.86108 39830 ft 433 kts 242°
2026-05-03 21:47 26.51082 49.80284 39824 ft 433 kts 244°
2026-05-03 21:47 26.48665 49.74154 39820 ft 431 kts 251°
2026-05-03 21:48 26.46805 49.67790 39830 ft 431 kts 252°
2026-05-03 21:48 26.44938 49.61424 39829 ft 432 kts 252°
2026-05-03 21:49 26.43062 49.55050 39841 ft 432 kts 252°
2026-05-03 21:49 26.41185 49.48679 39845 ft 432 kts 252°
2026-05-03 21:50 26.39306 49.42309 39866 ft 432 kts 252°
2026-05-03 21:50 26.37426 49.35949 39859 ft 431 kts 252°
2026-05-03 21:51 26.35547 49.29603 39855 ft 431 kts 252°
2026-05-03 21:51 26.33667 49.23268 39859 ft 430 kts 252°
2026-05-03 21:52 26.31786 49.16939 39860 ft 430 kts 252°
2026-05-03 21:52 26.30123 49.10557 39854 ft 429 kts 258°
2026-05-03 21:53 26.29251 49.04025 39853 ft 429 kts 264°
2026-05-03 21:53 26.28765 48.97359 39854 ft 429 kts 264°
2026-05-03 21:54 26.28253 48.90738 39859 ft 429 kts 264°
2026-05-03 21:54 26.27740 48.84128 39861 ft 429 kts 264°
2026-05-03 21:55 26.27228 48.77544 39864 ft 429 kts 264°
2026-05-03 21:55 26.26711 48.70937 39874 ft 430 kts 264°
2026-05-03 21:56 26.26189 48.64305 39877 ft 430 kts 264°
2026-05-03 21:56 26.25663 48.57668 39881 ft 430 kts 263°
2026-05-03 21:57 26.24587 48.51125 39888 ft 430 kts 255°
2026-05-03 21:57 26.22697 48.44808 39894 ft 430 kts 249°
2026-05-03 21:58 26.20209 48.38745 39907 ft 430 kts 246°
2026-05-03 21:58 26.17692 48.32701 39905 ft 430 kts 246°
2026-05-03 21:59 26.15173 48.26663 39911 ft 430 kts 246°
2026-05-03 21:59 26.12643 48.20637 39907 ft 429 kts 245°
2026-05-03 22:00 26.09505 48.14982 39909 ft 432 kts 235°
2026-05-03 22:00 26.05674 48.09822 39914 ft 432 kts 233°
2026-05-03 22:01 26.01854 48.04669 39845 ft 431 kts 233°
2026-05-03 22:01 25.99948 48.02101 39318 ft 431 kts 233°
2026-05-03 22:01 25.98029 47.99514 38335 ft 438 kts 233°
2026-05-03 22:02 25.96070 47.96874 37170 ft 446 kts 233°
2026-05-03 22:02 25.94084 47.94204 36116 ft 450 kts 232°
2026-05-03 22:02 25.92081 47.91515 35114 ft 453 kts 232°
2026-05-03 22:02 25.90068 47.88814 34155 ft 454 kts 232°
2026-05-03 22:03 25.88042 47.86098 33012 ft 458 kts 232°
2026-05-03 22:03 25.86015 47.83382 32123 ft 456 kts 232°
2026-05-03 22:03 25.83998 47.80683 31357 ft 451 kts 233°
2026-05-03 22:03 25.82009 47.78022 30618 ft 447 kts 233°
2026-05-03 22:04 25.80030 47.75374 29733 ft 445 kts 233°
2026-05-03 22:04 25.78059 47.72736 28903 ft 442 kts 233°
2026-05-03 22:04 25.76106 47.70123 28138 ft 438 kts 232°
2026-05-03 22:04 25.74172 47.67538 27336 ft 434 kts 232°
2026-05-03 22:05 25.72275 47.65004 26573 ft 431 kts 232°
2026-05-03 22:05 25.70342 47.62424 25805 ft 428 kts 232°
2026-05-03 22:05 25.68469 47.59921 25075 ft 426 kts 231°
2026-05-03 22:05 25.66590 47.57408 24343 ft 423 kts 231°
2026-05-03 22:06 25.64720 47.54907 23627 ft 420 kts 231°
2026-05-03 22:06 25.62870 47.52413 22816 ft 417 kts 232°
2026-05-03 22:06 25.61237 47.49778 22066 ft 413 kts 239°
2026-05-03 22:06 25.59857 47.47009 21324 ft 408 kts 242°
2026-05-03 22:07 25.58508 47.44256 20610 ft 405 kts 242°
2026-05-03 22:07 25.57161 47.41532 19906 ft 401 kts 242°
2026-05-03 22:07 25.55823 47.38836 19214 ft 398 kts 242°
2026-05-03 22:07 25.54497 47.36167 18548 ft 395 kts 242°
2026-05-03 22:08 25.53178 47.33511 17820 ft 392 kts 242°
2026-05-03 22:08 25.51870 47.30877 17080 ft 389 kts 242°
2026-05-03 22:08 25.50573 47.28264 16314 ft 386 kts 242°
2026-05-03 22:08 25.49285 47.25676 15752 ft 379 kts 242°
2026-05-03 22:09 25.48035 47.23165 15541 ft 365 kts 243°
2026-05-03 22:09 25.46825 47.20735 15484 ft 360 kts 243°
2026-05-03 22:09 25.45619 47.18310 15368 ft 360 kts 243°
2026-05-03 22:10 25.43217 47.13487 14957 ft 356 kts 243°
2026-05-03 22:10 25.42005 47.11099 14762 ft 355 kts 239°
2026-05-03 22:10 25.40358 47.09035 14146 ft 365 kts 221°
2026-05-03 22:10 25.38140 47.07599 13162 ft 378 kts 203°
2026-05-03 22:11 25.35593 47.06830 12404 ft 379 kts 195°
2026-05-03 22:11 25.33027 47.06244 11736 ft 374 kts 195°
2026-05-03 22:11 25.30509 47.05617 11101 ft 368 kts 197°
2026-05-03 22:11 25.28046 47.04924 10608 ft 360 kts 199°
2026-05-03 22:12 25.25697 47.04207 10450 ft 341 kts 200°
2026-05-03 22:12 25.23477 47.03503 10242 ft 323 kts 201°
2026-05-03 22:12 25.21382 47.02827 10098 ft 304 kts 201°
2026-05-03 22:12 25.19404 47.02184 9848 ft 291 kts 201°
2026-05-03 22:13 25.17466 47.01548 9216 ft 291 kts 201°
2026-05-03 22:13 25.15524 47.00907 8610 ft 291 kts 201°
2026-05-03 22:13 25.13589 47.00272 8143 ft 290 kts 200°
2026-05-03 22:13 25.11652 46.99641 7725 ft 290 kts 200°
2026-05-03 22:14 25.09722 46.99013 7320 ft 288 kts 199°
2026-05-03 22:14 25.07798 46.98389 6898 ft 288 kts 199°
2026-05-03 22:14 25.05896 46.97772 6705 ft 280 kts 198°
2026-05-03 22:14 25.04069 46.97181 6614 ft 266 kts 198°
2026-05-03 22:15 25.02351 46.96626 6475 ft 252 kts 197°
2026-05-03 22:15 25.00681 46.96082 6156 ft 248 kts 197°
2026-05-03 22:15 24.99031 46.95532 5786 ft 248 kts 197°
2026-05-03 22:15 24.97379 46.94996 5441 ft 248 kts 196°
2026-05-03 22:16 24.95724 46.94467 5123 ft 247 kts 196°
2026-05-03 22:16 24.94075 46.93939 4792 ft 246 kts 195°
2026-05-03 22:16 24.92434 46.93412 4463 ft 246 kts 195°
2026-05-03 22:16 24.90790 46.92881 4140 ft 246 kts 195°
2026-05-03 22:17 24.89154 46.92353 4017 ft 244 kts 195°
2026-05-03 22:17 24.87560 46.91837 3999 ft 231 kts 195°
2026-05-03 22:17 24.86092 46.91265 4007 ft 219 kts 200°
2026-05-03 22:17 24.84731 46.90665 4015 ft 209 kts 200°
2026-05-03 22:18 24.83363 46.90074 4003 ft 213 kts 200°
2026-05-03 22:18 24.81979 46.89480 4001 ft 215 kts 200°
2026-05-03 22:18 24.80607 46.88891 4002 ft 215 kts 199°
2026-05-03 22:18 24.79272 46.88162 3994 ft 217 kts 218°
2026-05-03 22:19 24.78408 46.86795 4008 ft 218 kts 245°
2026-05-03 22:19 24.77793 46.85290 3997 ft 218 kts 248°
2026-05-03 22:19 24.77611 46.83665 4006 ft 217 kts 281°
2026-05-03 22:19 24.78304 46.82242 4003 ft 212 kts 321°
2026-05-03 22:20 24.79575 46.81462 4007 ft 209 kts 337°
2026-05-03 22:20 24.80888 46.80770 4005 ft 210 kts 335°
2026-05-03 22:20 24.82173 46.80010 4002 ft 210 kts 333°
2026-05-03 22:20 24.83442 46.79218 4008 ft 209 kts 332°
2026-05-03 22:21 24.84707 46.78420 4002 ft 210 kts 332°
2026-05-03 22:21 24.85976 46.77615 3912 ft 210 kts 332°
2026-05-03 22:21 24.87192 46.76843 3616 ft 190 kts 333°
2026-05-03 22:21 24.88261 46.76165 3377 ft 166 kts 334°
2026-05-03 22:22 24.89226 46.75555 3192 ft 155 kts 334°
2026-05-03 22:22 24.90156 46.74967 3005 ft 153 kts 334°
2026-05-03 22:22 24.91077 46.74381 2799 ft 152 kts 333°
2026-05-03 22:22 24.91989 46.73802 2614 ft 150 kts 332°
2026-05-03 22:23 24.92892 46.73230 2422 ft 149 kts 331°
2026-05-03 22:23 24.93786 46.72657 2211 ft 149 kts 330°
2026-05-03 22:23 24.94682 46.72102 2062 ft 146 kts 330°
2026-05-03 22:23 24.95459 46.71612 2045 ft 106 kts 331°
2026-05-03 22:24 24.95929 46.71312 2044 ft 56 kts 332°
2026-05-03 22:24 24.96226 46.71122 2039 ft 44 kts 332°
2026-05-03 22:24 24.96406 46.71006 2033 ft 18 kts 316°
2026-05-03 22:24 24.96487 46.70904 2041 ft 13 kts 304°
2026-05-03 22:25 24.96520 46.70839 2036 ft 11 kts 293°
2026-05-03 22:25 24.96533 46.70762 2035 ft 12 kts 268°
2026-05-03 22:25 24.96506 46.70665 2042 ft 15 kts 240°
2026-05-03 22:25 24.96446 46.70555 2043 ft 18 kts 238°
2026-05-03 22:26 24.96403 46.70473 2041 ft 16 kts 243°
2026-05-03 22:26 24.96346 46.70407 2038 ft 13 kts 185°
2026-05-03 22:26 24.96250 46.70449 2036 ft 16 kts 149°
2026-05-03 22:26 24.96143 46.70519 2042 ft 19 kts 149°
2026-05-03 22:27 24.96023 46.70596 2041 ft 18 kts 150°
2026-05-03 22:27 24.95956 46.70637 2042 ft 12 kts 151°
2026-05-03 22:27 24.95875 46.70686 2040 ft 11 kts 151°
2026-05-03 22:27 24.95848 46.70693 2041 ft 4 kts 202°
2026-05-03 22:28 24.95808 46.70659 2042 ft 9 kts 232°
2026-05-03 22:28 24.95766 46.70592 2045 ft 13 kts 241°
2026-05-03 22:28 24.95731 46.70516 2041 ft 0 kts 243°